TimeMDT,TemperatureF,Dew PointF,Humidity,Sea Level PressureIn,VisibilityMPH,Wind Direction,Wind SpeedMPH,Gust SpeedMPH,PrecipitationIn,Events,Conditions,WindDirDegrees,DateUTC
12:56 AM,21.9,17.1,82,30.21,10.0,SE,3.5,-,N/A,,Clear,140,2013-04-19 06:56:00
1:56 AM,28.9,19.9,69,30.18,10.0,South,4.6,-,N/A,,Clear,190,2013-04-19 07:56:00
2:56 AM,26.1,19.0,75,30.17,10.0,South,5.8,-,N/A,,Clear,170,2013-04-19 08:56:00
3:56 AM,23.0,18.0,81,30.17,10.0,SE,6.9,-,N/A,,Clear,140,2013-04-19 09:56:00
4:56 AM,27.0,19.9,75,30.15,10.0,SSE,6.9,-,N/A,,Mostly Cloudy,160,2013-04-19 10:56:00
5:56 AM,28.0,21.9,78,30.14,10.0,SSE,6.9,-,N/A,,Mostly Cloudy,160,2013-04-19 11:56:00
6:56 AM,32.0,21.0,64,30.10,10.0,SSE,9.2,-,N/A,,Partly Cloudy,150,2013-04-19 12:56:00
7:56 AM,34.0,25.0,70,30.09,10.0,ESE,5.8,-,N/A,,Overcast,110,2013-04-19 13:56:00
8:56 AM,37.4,24.8,60,30.03,10.0,ESE,4.6,-,N/A,,Overcast,110,2013-04-19 14:56:00
9:56 AM,42.1,27.0,55,30.04,10.0,Variable,3.5,-,N/A,,Overcast,0,2013-04-19 15:56:00
10:56 AM,44.1,27.0,51,30.02,10.0,NE,4.6,-,N/A,,Overcast,50,2013-04-19 16:56:00
11:56 AM,46.0,27.0,47,30.02,10.0,SSE,4.6,-,N/A,,Mostly Cloudy,150,2013-04-19 17:56:00
12:56 PM,50.0,27.0,41,29.98,10.0,Variable,3.5,-,N/A,,Overcast,0,2013-04-19 18:56:00
1:43 PM,53.6,26.6,35,29.89,10.0,SW,13.8,19.6,N/A,,Overcast,230,2013-04-19 19:43:00
1:56 PM,53.1,26.1,35,29.91,10.0,West,10.4,24.2,N/A,,Overcast,260,2013-04-19 19:56:00
2:56 PM,52.0,27.0,38,29.90,10.0,SW,12.7,23.0,N/A,,Overcast,220,2013-04-19 20:56:00
3:11 PM,53.6,26.6,35,29.85,10.0,WSW,18.4,25.3,N/A,,Overcast,240,2013-04-19 21:11:00
3:56 PM,54.0,28.9,38,29.87,10.0,WSW,17.3,31.1,N/A,,Overcast,240,2013-04-19 21:56:00
4:56 PM,52.0,30.0,43,29.86,10.0,WSW,23.0,29.9,N/A,,Overcast,250,2013-04-19 22:56:00
5:56 PM,48.9,32.0,52,29.88,10.0,West,18.4,25.3,N/A,,Overcast,270,2013-04-19 23:56:00
6:56 PM,45.0,36.0,71,29.91,10.0,WSW,5.8,-,0.03,Rain,Light Rain,250,2013-04-20 00:56:00
7:43 PM,42.8,37.4,81,29.87,4.0,West,15.0,23.0,0.04,Rain,Rain,260,2013-04-20 01:43:00
7:56 PM,42.1,37.0,82,29.92,7.0,SW,10.4,-,0.05,Rain,Light Rain,230,2013-04-20 01:56:00
8:56 PM,42.1,36.0,79,29.91,10.0,Calm,Calm,-,0.01,,Overcast,0,2013-04-20 02:56:00
9:56 PM,39.9,37.0,89,29.92,10.0,ENE,3.5,-,N/A,,Overcast,70,2013-04-20 03:56:00
10:56 PM,42.1,36.0,79,29.91,10.0,Calm,Calm,-,0.00,,Overcast,0,2013-04-20 04:56:00
11:56 PM,39.0,36.0,89,29.91,10.0,South,3.5,-,0.01,,Overcast,180,2013-04-20 05:56:00